User: anonymous   Login
Location: Unspecified
(0.0000°N, 0.0000°E)
Time: 03:24:35
(UTC+00:00)
Language:

SJ-25 - Orbit

View from above orbital plane
View from above orbital plane
View from above satellite
View from above satellite

Ground track
Ground track

The orbit is defined by the following mean orbital elements,

1 62485U          26145.75169875 +.00000000 +00000-0 +00000-0 0 00004
2 62485   5.0620  61.3084 0051796 171.4431  48.6039  1.00267548    04
Epoch (UTC): 25 May 2026 18:02:26
Eccentricity: 0.0051796
inclination: 5.0620°
perigee height: 35569 km
apogee height: 36006 km
right ascension of ascending node: 61.3084°
argument of perigee: 171.4431°
revolutions per day: 1.00267548
mean anomaly at epoch: 48.6039°

The dashed part of the orbit path shows where the satellite is in the earth's shadow,  

DLR